When you browse on this site, cookies collect data to enhance your experience and personalize the content and advertising you see.
Visit our Privacy Policy to learn more. By continuing to use the site, you agree to this use of cookies and data.
  • în România
  • Lista ţărilor
  • Pe 7 zile
  • Temperatura apei
  • Hartă satelitară
  • Meteo pe hartă
  • Widget-uri
  • user-avatar
    Intrare

    Meteo pe oră la Dundee

    Astăzi, 23 Ianuarie, Miercuri

    Timp Temperatura Precipitaţii Vânt Presiune Umiditate
    00:00 -3°C° 0 mm 2 m/s 737 mmHg 82%
    01:00 -3°C° 0 mm 2 m/s 737 mmHg 81%
    02:00 -3°C° 0 mm 2 m/s 737 mmHg 80%
    03:00 -3°C° 0 mm 2 m/s 738 mmHg 80%
    04:00 -3°C° 0 mm 2 m/s 738 mmHg 79%
    05:00 -3°C° 0 mm 2 m/s 738 mmHg 79%
    06:00 -3°C° 0 mm 2 m/s 739 mmHg 78%
    07:00 -3°C° 0 mm 2 m/s 739 mmHg 78%
    08:00 -3°C° 0 mm 2 m/s 740 mmHg 78%
    09:00 -2°C° 0 mm 2 m/s 740 mmHg 77%
    10:00 -1°C° 0 mm 2 m/s 740 mmHg 74%
    11:00 +1°C° 0 mm 2 m/s 740 mmHg 71%
    12:00 0°C° 0 mm 3 m/s 741 mmHg 68%
    13:00 +1°C° 0 mm 3 m/s 741 mmHg 70%
    14:00 +1°C° 0 mm 3 m/s 741 mmHg 72%
    15:00 +1°C° 0 mm 3 m/s 741 mmHg 73%
    16:00 0°C° 0 mm 3 m/s 741 mmHg 77%
    17:00 0°C° 0 mm 3 m/s 741 mmHg 80%
    18:00 0°C° 0 mm 3 m/s 741 mmHg 84%
    19:00 -1°C° 0 mm 3 m/s 741 mmHg 85%
    20:00 -1°C° 0 mm 3 m/s 742 mmHg 86%
    21:00 -1°C° 0 mm 3 m/s 742 mmHg 87%
    22:00 -1°C° 0 mm 3 m/s 742 mmHg 87%
    23:00 -1°C° 0 mm 3 m/s 742 mmHg 86%

    Mâine, 24 Ianuarie, Joi

    Timp Temperatura Precipitaţii Vânt Presiune Umiditate
    00:00 -1°C° 0 mm 3 m/s 742 mmHg 86%
    01:00 -1°C° 0 mm 3 m/s 742 mmHg 86%
    02:00 -1°C° 0 mm 3 m/s 742 mmHg 86%
    03:00 -1°C° 0 mm 3 m/s 743 mmHg 86%
    04:00 -1°C° 0 mm 3 m/s 743 mmHg 85%
    05:00 -1°C° 0 mm 3 m/s 744 mmHg 84%
    06:00 -1°C° 0 mm 3 m/s 744 mmHg 83%
    07:00 -1°C° 0 mm 3 m/s 745 mmHg 83%
    08:00 -2°C° 0 mm 3 m/s 745 mmHg 82%
    09:00 -2°C° 0 mm 2 m/s 746 mmHg 82%
    10:00 -1°C° 0 mm 2 m/s 746 mmHg 78%
    11:00 +1°C° 0 mm 2 m/s 747 mmHg 75%
    12:00 +2°C° 0 mm 2 m/s 747 mmHg 71%
    13:00 +2°C° 0 mm 2 m/s 747 mmHg 72%
    14:00 +2°C° 0 mm 2 m/s 747 mmHg 73%
    15:00 +2°C° 0 mm 2 m/s 748 mmHg 74%
    16:00 +1°C° 0 mm 2 m/s 748 mmHg 77%
    17:00 +2°C° 0 mm 1 m/s 748 mmHg 79%
    18:00 +1°C° 0 mm 1 m/s 748 mmHg 82%
    19:00 +1°C° 0 mm 1 m/s 749 mmHg 82%
    20:00 +1°C° 0 mm 1 m/s 749 mmHg 82%
    21:00 0°C° 0 mm 1 m/s 749 mmHg 82%
    22:00 +1°C° 0 mm 1 m/s 749 mmHg 81%
    23:00 +1°C° 0 mm 1 m/s 749 mmHg 80%

    Poimâine, 25 Ianuarie, Vineri

    Timp Temperatura Precipitaţii Vânt Presiune Umiditate
    00:00 +2°C° 0 mm 1 m/s 749 mmHg 78%
    01:00 +1°C° 0.3 mm 2 m/s 749 mmHg 81%
    02:00 +1°C° 0.3 mm 2 m/s 748 mmHg 83%
    03:00 0°C° 0.3 mm 3 m/s 748 mmHg 86%
    04:00 0°C° 0.3 mm 3 m/s 747 mmHg 88%
    05:00 0°C° 0.3 mm 3 m/s 747 mmHg 90%
    06:00 0°C° 0.3 mm 3 m/s 747 mmHg 93%
    07:00 +1°C° 0.1 mm 3 m/s 747 mmHg 93%
    08:00 0°C° 0.1 mm 4 m/s 746 mmHg 94%
    09:00 0°C° 0.1 mm 4 m/s 746 mmHg 95%
    10:00 +3°C° 0 mm 4 m/s 746 mmHg 95%
    11:00 +3°C° 0 mm 5 m/s 746 mmHg 95%
    12:00 +4°C° 0 mm 6 m/s 746 mmHg 95%
    13:00 +4°C° 0 mm 6 m/s 745 mmHg 95%
    14:00 +4°C° 0 mm 6 m/s 744 mmHg 95%
    15:00 +5°C° 0 mm 6 m/s 744 mmHg 95%
    16:00 +5°C° 0 mm 7 m/s 743 mmHg 94%
    17:00 +5°C° 0 mm 8 m/s 742 mmHg 93%
    18:00 +5°C° 0 mm 9 m/s 741 mmHg 91%
    19:00 +5°C° 0.1 mm 9 m/s 740 mmHg 91%
    20:00 +6°C° 0.1 mm 9 m/s 739 mmHg 90%
    21:00 +6°C° 0.1 mm 9 m/s 739 mmHg 90%
    22:00 +4°C° 0.2 mm 8 m/s 739 mmHg 89%
    23:00 +3°C° 0.2 mm 6 m/s 739 mmHg 88%

    26 Ianuarie, Sâmbătă

    Timp Temperatura Precipitaţii Vânt Presiune Umiditate
    00:00 +2°C° 0.2 mm 5 m/s 739 mmHg 87%
    01:00 +2°C° 0 mm 5 m/s 738 mmHg 85%
    02:00 +1°C° 0 mm 5 m/s 738 mmHg 83%
    03:00 +1°C° 0 mm 5 m/s 738 mmHg 82%
    04:00 -1°C° 0 mm 6 m/s 738 mmHg 81%
    05:00 -1°C° 0 mm 6 m/s 738 mmHg 79%
    06:00 -2°C° 0 mm 7 m/s 737 mmHg 78%
    07:00 -1°C° 0 mm 7 m/s 738 mmHg 78%
    08:00 -1°C° 0 mm 6 m/s 738 mmHg 77%
    09:00 -1°C° 0 mm 6 m/s 738 mmHg 77%
    10:00 0°C° 0 mm 7 m/s 738 mmHg 73%
    11:00 0°C° 0 mm 7 m/s 738 mmHg 70%
    12:00 +1°C° 0 mm 8 m/s 739 mmHg 67%
    13:00 0°C° 0 mm 8 m/s 738 mmHg 66%
    14:00 0°C° 0 mm 8 m/s 738 mmHg 64%
    15:00 0°C° 0 mm 9 m/s 738 mmHg 63%
    16:00 0°C° 0 mm 9 m/s 738 mmHg 65%
    17:00 -2°C° 0 mm 10 m/s 739 mmHg 67%
    18:00 -2°C° 0 mm 10 m/s 739 mmHg 69%
    19:00 -2°C° 0 mm 10 m/s 739 mmHg 69%
    20:00 -1°C° 0 mm 11 m/s 739 mmHg 69%
    21:00 -1°C° 0 mm 11 m/s 739 mmHg 69%
    22:00 -1°C° 0.2 mm 11 m/s 739 mmHg 69%
    23:00 -1°C° 0.2 mm 12 m/s 739 mmHg 69%

    27 Ianuarie, Duminică

    Timp Temperatura Precipitaţii Vânt Presiune Umiditate
    00:00 -1°C° 0.2 mm 13 m/s 740 mmHg 68%
    01:00 -1°C° 0.1 mm 13 m/s 740 mmHg 68%
    02:00 -1°C° 0.1 mm 12 m/s 740 mmHg 68%
    03:00 -1°C° 0.1 mm 12 m/s 741 mmHg 69%
    04:00 -1°C° 0 mm 11 m/s 741 mmHg 70%
    05:00 -1°C° 0 mm 11 m/s 742 mmHg 71%
    06:00 0°C° 0 mm 10 m/s 742 mmHg 72%
    07:00 0°C° 0.1 mm 9 m/s 743 mmHg 74%
    08:00 0°C° 0.1 mm 8 m/s 744 mmHg 77%
    09:00 0°C° 0.1 mm 8 m/s 745 mmHg 79%
    10:00 0°C° 0.3 mm 9 m/s 746 mmHg 75%
    11:00 +1°C° 0.3 mm 10 m/s 746 mmHg 71%
    12:00 +1°C° 0.3 mm 11 m/s 747 mmHg 66%
    13:00 0°C° 0 mm 10 m/s 747 mmHg 66%
    14:00 0°C° 0 mm 9 m/s 747 mmHg 66%
    15:00 -1°C° 0 mm 8 m/s 748 mmHg 66%
    16:00 -1°C° 0 mm 7 m/s 748 mmHg 68%
    17:00 -2°C° 0 mm 6 m/s 748 mmHg 70%
    18:00 -1°C° 0 mm 5 m/s 749 mmHg 73%
    19:00 -2°C° 0 mm 6 m/s 749 mmHg 74%
    20:00 -1°C° 0 mm 6 m/s 750 mmHg 75%
    21:00 -1°C° 0 mm 7 m/s 750 mmHg 76%
    22:00 -1°C° 0 mm 7 m/s 751 mmHg 76%
    23:00 -1°C° 0 mm 7 m/s 751 mmHg 76%

    28 Ianuarie, Luni

    Timp Temperatura Precipitaţii Vânt Presiune Umiditate
    00:00 -2°C° 0 mm 7 m/s 752 mmHg 76%
    01:00 -2°C° 0 mm 6 m/s 752 mmHg 76%
    02:00 -2°C° 0 mm 6 m/s 752 mmHg 76%
    03:00 -3°C° 0 mm 6 m/s 752 mmHg 76%
    04:00 -2°C° 0 mm 5 m/s 753 mmHg 76%
    05:00 -4°C° 0 mm 5 m/s 753 mmHg 76%
    06:00 -4°C° 0 mm 5 m/s 753 mmHg 76%
    07:00 -3°C° 0 mm 4 m/s 754 mmHg 77%
    08:00 -3°C° 0 mm 4 m/s 754 mmHg 77%
    09:00 -2°C° 0 mm 3 m/s 755 mmHg 78%
    10:00 -1°C° 0 mm 3 m/s 755 mmHg 76%
    11:00 0°C° 0 mm 3 m/s 755 mmHg 73%
    12:00 +2°C° 0 mm 2 m/s 755 mmHg 71%
    13:00 +2°C° 0 mm 2 m/s 755 mmHg 72%
    14:00 +2°C° 0 mm 2 m/s 755 mmHg 74%
    15:00 +2°C° 0 mm 2 m/s 754 mmHg 75%
    16:00 +2°C° 0 mm 2 m/s 754 mmHg 78%
    17:00 0°C° 0 mm 3 m/s 754 mmHg 81%
    18:00 -1°C° 0 mm 3 m/s 754 mmHg 84%
    19:00 -1°C° 0 mm 3 m/s 754 mmHg 83%
    20:00 0°C° 0 mm 3 m/s 754 mmHg 82%
    21:00 -1°C° 0 mm 4 m/s 754 mmHg 81%
    22:00 -1°C° 0 mm 4 m/s 753 mmHg 82%
    23:00 0°C° 0 mm 4 m/s 753 mmHg 84%
    Arată mai mult